FW5311 Weather Reports


Display with metric or nautical units.
time (UTC)temp
F
wind
direction
speed
MPH
gust
MPH
rain 1hr
in
rain 24hr
in
rain mn
in
humidity
%
barometer
mb
20260504000050 68 259 13.0 22.0 0.00 0.00 0.00 42 992.9
20260503234601 68 232 18.0 30.0 0.00 0.00 0.00 41 993.1
20260503233048 68 247 20.0 30.0 0.00 0.00 0.00 40 993.4
20260503231548 69 247 15.0 27.0 0.00 0.00 0.00 38 993.6
20260503230047 69 259 14.0 29.0 0.00 0.00 0.00 37 993.6
20260503224543 70 250 19.0 30.0 0.00 0.00 0.00 34 993.6
20260503223042 70 264 17.0 28.0 0.00 0.00 0.00 32 993.8
20260503221554 70 262 17.0 34.0 0.00 0.00 0.00 31 994.1
20260503220043 71 230 15.0 28.0 0.00 0.00 0.00 27 994.4
20260503214545 71 227 13.0 23.0 0.00 0.00 0.00 28 994.5
20260503213046 70 227 15.0 25.0 0.00 0.00 0.00 29 994.9
20260503211546 68 207 11.0 29.0 0.00 0.00 0.00 33 995.6
20260503210043 69 240 13.0 31.0 0.00 0.00 0.00 29 996.0
20260503204546 70 245 8.0 25.0 0.00 0.00 0.00 28 996.1
20260503203055 70 241 9.0 32.0 0.00 0.00 0.00 30 996.6
20260503201549 70 254 15.0 28.0 0.00 0.00 0.00 29 997.3
20260503200050 71 254 12.0 31.0 0.00 0.00 0.00 29 997.7
20260503194552 71 244 17.0 35.0 0.00 0.00 0.00 29 998.3
20260503193043 71 223 15.0 23.0 0.00 0.00 0.00 30 998.6
20260503191541 70 263 16.0 25.0 0.00 0.00 0.00 31 998.9
20260503190041 69 224 12.0 22.0 0.00 0.00 0.00 32 999.5
20260503184544 68 209 11.0 21.0 0.00 0.00 0.00 33 1000.1
20260503183051 68 236 12.0 22.0 0.00 0.00 0.00 33 1000.8
20260503181539 68 196 12.0 20.0 0.00 0.00 0.00 31 1001.0
20260503180050 68 273 10.0 19.0 0.00 0.00 0.00 31 1001.5
20260503174543 67 221 10.0 14.0 0.00 0.00 0.00 30 1002.0
20260503173041 66 255 11.0 18.0 0.00 0.00 0.00 32 1002.5
20260503171547 65 242 10.0 16.0 0.00 0.00 0.00 35 1003.0
20260503081542 33 0 0.0 3.0 0.00 0.00 0.00 77 1008.9
20260503071603 36 290 1.0 2.0 0.00 0.00 0.00 73 1009.2
20260503054552 41 321 1.0 3.0 0.00 0.00 0.00 64 1009.4
20260503053043 42 325 1.0 6.0 0.00 0.00 0.00 63 1009.4
20260503051542 43 338 4.0 6.0 0.00 0.00 0.00 62 1009.3
20260503050043 45 346 4.0 9.0 0.00 0.00 0.00 60 1009.4
20260503044540 46 355 6.0 13.0 0.00 0.00 0.00 58 1009.0
20260503043040 47 9 7.0 12.0 0.00 0.00 0.00 57 1009.1
20260503041543 49 360 8.0 15.0 0.00 0.00 0.00 57 1008.9
20260503040051 50 345 7.0 11.0 0.00 0.00 0.00 57 1009.0
20260503034538 51 327 7.0 11.0 0.00 0.00 0.00 55 1008.6
20260503033041 51 304 5.0 10.0 0.00 0.00 0.00 53 1008.5
20260503031546 51 298 2.0 10.0 0.00 0.00 0.00 52 1008.4
20260503030048 52 303 8.0 15.0 0.00 0.00 0.00 52 1008.5
20260503024542 51 310 2.0 6.0 0.00 0.00 0.00 52 1008.5
20260503023046 49 291 3.0 8.0 0.00 0.00 0.00 55 1008.2
20260503021540 51 340 1.0 2.0 0.00 0.00 0.00 54 1008.0
20260503020040 52 346 0.0 3.0 0.00 0.00 0.00 53 1007.8
20260503014603 55 346 2.0 4.0 0.00 0.00 0.00 51 1007.7
20260503013043 57 355 4.0 10.0 0.00 0.00 0.00 47 1007.6
20260503011542 59 350 8.0 13.0 0.00 0.00 0.00 44 1007.5
20260503010040 60 355 6.0 13.0 0.00 0.00 0.00 44 1007.5
20260503004547 61 352 9.0 14.0 0.00 0.00 0.00 42 1007.2
20260503003059 62 330 10.0 18.0 0.00 0.00 0.00 40 1007.1
20260503001552 63 327 9.0 15.0 0.00 0.00 0.00 42 1007.0